Regional Weather Roundup
Issued by NWS Cleveland, OH

Home | Current Version | Previous Version | Graphics & Text | Print | Product List | Glossary On
Versions: 1 2 3 4 5 6 7 8 9 10 11 12 13 14 15 16 17 18 19 20 21 22 23 24 25 26 27 28 29 30 31 32 33 34 35 36 37 38 39 40 41 42 43 44 45 46 47 48 49 50
594
ASUS41 KCLE 191310
RWRCLE
OHIO REGIONAL WEATHER ROUNDUP
NATIONAL WEATHER SERVICE CLEVELAND, OH
900 AM EDT THU OCT 19 2017

NOTE: "FAIR" INDICATES FEW OR NO CLOUDS BELOW 12,000 FEET WITH NO
SIGNIFICANT WEATHER AND/OR OBSTRUCTIONS TO VISIBILITY.

OHZ001>008-015>018-024>027-034-035-043-044-191400-
   NORTHWEST OHIO

CITY           SKY/WX    TMP DP  RH WIND       PRES   REMARKS
DEFIANCE       SUNNY     53  45  74 SW8       30.13R
FINDLAY        SUNNY     54  45  71 SW9       30.14R
TOLEDO EXPRESS SUNNY     55  48  77 SW13      30.11R
TOLEDO EXEC    SUNNY     54  46  74 SW12      30.13R
LIMA           SUNNY     54  46  74 S9        30.16R
$$

OHZ009>014-019>023-028>033-038-089-191400-
   NORTHEAST OHIO

CITY           SKY/WX    TMP DP  RH WIND       PRES   REMARKS
CLE-HOPKINS    MOSUNNY   55  45  68 S16       30.16S
CLE-LAKEFRONT  MOSUNNY   57  44  62 S17       30.12S
CUY CO. ARPT   MOSUNNY   57  45  62 SW15      30.14S
LORAIN-ELYRIA  SUNNY     52  41  66 SW8       30.15R
ASHTABULA      MOSUNNY   52  44  74 S10       30.15S
AKRON-CANTON   MOSUNNY   52  43  71 SW9       30.19R
WOOSTER        MOSUNNY   51  45  79 VRB3      30.19R
MANSFIELD      SUNNY     55  45  68 SW13      30.17S
YOUNGSTOWN     MOSUNNY   51  43  74 S8        30.18R
$$

OHZ042-051>053-060>062-070>072-077>081-191400-
  SOUTHWEST OHIO

CITY           SKY/WX    TMP DP  RH WIND       PRES   REMARKS
CINC-COVINGTON SUNNY     50  46  86 S9        30.23R
CINC-LUNKEN    SUNNY     47  47 100 SW3       30.26R
HAMILTON       SUNNY     45  45 100 CALM      30.24R
DAYTON         MOSUNNY   51  47  86 SW8       30.21R
WRIGHT-PAT AFB SUNNY     50  47  92 CALM      30.21R
DAYTON GENERAL SUNNY     49  45  86 S8        30.22R
WILMINGTON     SUNNY     50  46  86 SW9       30.23R
$$

OHZ036-037-039>041-045>050-054>059-063>069-073>076-082>088-191400-
  CENTRAL AND SOUTHEAST OHIO

CITY           SKY/WX    TMP DP  RH WIND       PRES   REMARKS
COLUMBUS       MOSUNNY   50  45  83 S6        30.22R
OSU AIRPORT    SUNNY     49  45  86 S7        30.22R
BOLTON FIELD   SUNNY     46  45  93 SW6       30.22R
RICKENBACK AFB SUNNY     48  45  87 S8        30.22R
NEWARK         SUNNY     45  43  93 CALM      30.23R
MARION         SUNNY     49  44  83 S10       30.19R
LANCASTER      SUNNY     47  45  93 S5        30.23R
ZANESVILLE     SUNNY     46  42  86 S5        30.24R
NEW PHILLY     NOT AVBL
$$




USA.gov is the U.S. government's official web portal to all federal, state and local government web resources and services.